Location: Alevi
(42.1929°N, 44.5243°E)
Time: 17:18:10
(UTC+00:00)

Daily predictions for brighter satellites

Satellite Brightness Start Highest point End
(mag) Time Altitude Azimuth Time Altitude Azimuth Time Altitude Azimuth
BREEZE-M DEB (TANK) 3.1 14:55:57 10° WNW 14:59:44 87° SSW 15:04:26 10° ESE
Okean 1 Rocket 3.4 14:56:02 10° N 15:00:14 43° ENE 15:04:22 10° SSE
IRS-P3 4.1 14:55:52 10° SSE 15:01:09 71° ENE 15:06:28 10° N
Cosmos 2221 Rocket 3.8 14:58:52 10° S 15:03:10 51° E 15:07:33 10° NNE
Cosmos 1356 Rocket 3.2 14:59:55 10° N 15:03:52 77° E 15:07:50 10° SSE
Cosmos 1378 Rocket 4.2 15:00:25 10° SSW 15:04:40 61° W 15:08:56 10° N
Cosmos 2263 Rocket 3.9 15:02:31 10° ESE 15:04:48 12° E 15:07:05 10° ENE
Okean 2 Rocket 3.1 15:00:48 10° N 15:05:08 58° E 15:09:26 10° SSE
Cosmos 1980 4.1 15:02:17 10° NNW 15:07:36 40° ENE 15:12:53 10° SE
SJ-6F 4.4 15:05:42 10° SSE 15:09:38 87° WSW 15:13:35 10° NNW
ATLAS 5 CENTAUR R/B 3.3 15:06:05 10° NW 15:10:26 43° WSW 15:15:45 10° S
COSMOS 2428 2.8 15:04:58 10° NNW 15:10:44 89° WSW 15:16:27 10° SSE
NOSS 3-3 (C) 3.9 15:06:49 10° SW 15:11:54 71° NW 15:17:56 10° NNE
BREEZE-M DEB (TANK) 4.3 15:08:10 10° WNW 15:12:30 55° NNE 15:30:20 10° E
Cosmos 2237 Rocket 2.6 15:07:33 10° NNW 15:12:55 41° ENE 15:18:16 10° SE
SJ-6B 4.2 15:12:32 10° E 15:14:24 14° ENE 15:16:16 10° NNE
BREEZE-M DEB (TANK) 4.0 15:11:19 10° NW 15:14:42 48° NNE 15:24:26 10° E
Cosmos 1025 Rocket 3.0 15:10:42 10° S 15:14:59 89° WNW 15:19:21 10° N
Sich 1 Rocket 3.6 15:15:23 10° N 15:19:56 68° E 15:24:27 10° SSE
Cosmos 1570 Rocket 4.1 15:14:55 10° S 15:20:02 54° ESE 15:25:09 10° NNE
GP-B 4.1 15:15:56 10° SSW 15:20:10 50° W 15:24:26 10° NNW
BREEZE-M DEB (TANK) 4.2 15:18:23 10° S 15:21:20 24° ESE 15:27:31 11° ENE
SeaSat 1 2.5 15:16:49 10° SSE 15:21:43 86° WSW 15:26:39 10° NNW
Cosmos 1125 Rocket 3.4 15:17:30 10° NNW 15:22:41 71° ENE 15:27:52 10° SSE
SKYMED 2 3.9 15:20:43 10° N 15:25:03 72° WNW 15:29:23 10° SSW
USA 234 3.4 15:18:44 10° SE 15:25:17 80° SW 15:31:53 10° NW
Resurs 1-3 3.5 15:21:13 10° SSE 15:25:30 80° ENE 15:29:49 10° N
Resurs 01 Rocket 2.2 15:23:21 10° SE 15:27:20 35° ENE 15:31:22 10° N
SPOT 5 4.4 15:27:48 14° ENE 15:28:50 15° ENE 15:31:41 10° NNE
SJ-7 4.2 15:25:59 10° SSE 15:29:35 56° ENE 15:33:11 10° N
Cosmos 2227 Rocket 2.6 15:29:46 10° S 15:34:58 40° ESE 15:40:12 10° NE
Cosmos 1447 Rocket 4.5 15:30:38 10° S 15:36:45 90° NE 15:42:55 10° N
Spot 4 Rocket 3.9 15:32:00 10° SSE 15:37:05 76° ENE 15:42:12 10° N
NOAA 6 4.0 15:32:12 10° SSE 15:37:16 62° ENE 15:42:21 10° N
SL-16 R/B 3.5 15:34:08 10° N 15:38:22 21° NE 15:40:09 18° ENE
Cosmos 2208 Rocket 4.0 15:35:51 10° S 15:40:57 59° ESE 15:46:10 10° NNE
Cosmos 773 Rocket 4.0 15:36:20 10° S 15:41:31 64° ESE 15:46:45 10° NNE
ARIANE 5 R/B 4.5 15:37:48 10° SSW 15:42:21 32° W 15:46:54 10° NNW
CARTOSAT-1 3.4 15:45:19 10° SSE 15:49:30 83° ENE 15:53:43 10° N
Cosmos 1891 Rocket 4.5 15:43:35 10° N 15:50:02 78° E 15:56:30 10° SSE
Tiangong -1.9 15:46:56 10° WSW 15:50:03 58° SSE 15:51:05 36° ESE
Cosmos 1346 Rocket 3.1 15:50:16 10° SSE 15:53:33 34° E 15:53:52 34° E
Cosmos 2285 Rocket 4.2 15:48:26 10° NNW 15:54:52 78° WSW 16:01:13 10° SSE
SL-19 R/B 4.4 15:48:59 10° SSE 15:55:11 85° ENE 16:01:09 10° NNW
Gbstr 26 Del rocket 4.5 15:51:41 10° SSW 15:58:01 50° SE 16:02:22 24° ENE
NOSS 3-4 (A) 3.9 15:54:22 10° NNW 16:01:12 66° NE 16:08:21 14° SE
NOSS 3-4 (C) 3.9 15:54:39 10° NNW 16:01:30 65° NE 16:08:31 14° SE
Radarsat Rocket 4.2 15:56:51 10° S 16:02:39 71° WSW 16:08:52 10° NNW
Cosmos 1513 Rocket 4.5 15:58:30 10° N 16:04:49 89° ENE 16:11:13 10° S
Atlas Centaur 2 4.0 15:58:49 10° WSW 16:05:29 31° S 16:10:01 16° SE
Cosmos 2034 Rocket 4.3 16:01:18 10° N 16:07:09 43° ENE 16:13:00 10° SSE
CRYOSAT 2 4.4 16:02:55 10° N 16:07:50 83° W 16:12:42 10° S
Cosmos 2344 3.6 16:00:15 10° SSW 16:08:19 57° ESE 16:13:39 18° NE
Cosmos 1072 Rocket 4.4 16:02:09 10° N 16:08:23 72° E 16:14:30 10° SSE
ARIANE 6 FM1 Upper Stage 4.5 16:07:13 10° N 16:09:02 16° NNE 16:09:02 16° NNE
Cosmos 2150 Rocket 3.9 16:05:00 10° NNW 16:10:07 64° ENE 16:13:54 18° SSE
CSL-04 Rocket 4.0 16:12:01 35° E 16:13:09 40° ENE 16:18:02 10° N
Cosmos 2298 Rocket 3.9 16:07:59 10° NNW 16:13:16 65° ENE 16:16:53 20° SE
Cosmos 2297 Rocket 3.5 16:14:23 10° SW 16:19:39 39° WNW 16:24:57 10° N
Cosmos 44 Rocket 4.0 16:15:41 10° SW 16:20:29 54° NW 16:24:33 15° NNE
Cosmos 1975 Rocket 3.2 16:16:44 10° SSW 16:21:04 73° W 16:25:24 10° N
Cosmos 1455 Rocket 4.1 16:18:34 10° NNW 16:22:41 46° W 16:26:47 10° SSW
IRAS Rocket 4.2 16:17:19 10° SSE 16:22:55 87° WSW 16:28:35 10° NNW
DNEPR-1 R/B 4.1 16:19:04 10° NNW 16:24:04 64° NE 16:25:50 42° ESE
Helios 1A Rocket 2.5 16:24:50 69° WSW 16:24:50 69° WSW 16:27:49 10° SSW
Cosmos 2228 3.0 16:22:13 10° N 16:26:25 78° W 16:30:37 10° S
CZ-4C R/B 4.3 16:26:44 10° WNW 16:29:41 16° NNW 16:33:04 10° NNE
Cosmos 1782 3.6 16:26:53 10° N 16:29:04 35° N 16:29:04 35° N
Cosmos 2219 3.7 16:28:59 10° S 16:33:10 39° SE 16:33:10 39° SE
Cosmos 1464 Rocket 4.1 16:28:39 10° N 16:35:01 78° W 16:41:17 10° S
SJ-6B 4.1 16:46:06 24° SW 16:47:28 33° W 16:50:37 10° NNW
Cosmos 2263 Rocket 2.1 16:42:09 10° SSW 16:47:49 88° WNW 16:49:56 41° NNE
Cosmos 2237 Rocket 4.0 16:51:55 10° NW 16:56:46 29° WSW 17:01:35 10° SSW
Resurs 01 Rocket 4.1 17:00:27 10° SW 17:03:47 21° W 17:07:09 10° NW
SPOT 5 3.3 17:06:50 59° NW 17:06:50 59° NW 17:11:08 10° NNW
Cosmos 2227 Rocket 3.8 17:14:04 10° WSW 17:19:03 31° NW 17:23:23 13° N
Tsikada Rocket 4.1 17:15:12 10° SSW 17:21:18 70° W 17:27:29 10° N
SL-16 R/B 2.7 17:17:21 10° NNW 17:22:04 57° WNW 17:22:04 57° WNW
